Location: Burgerwiesen
(48.6500°N, 15.6167°E)
Time: 08:16:59
(UTC+00:00)

CZ-4C R/B - Pass Details

Date: 09 April 2020
Orbit: 637 x 1364 km, 63.4° (Epoch: 24 May)

Event Time Altitude Azimuth Distance (km) Brightness Sun altitude
Rises 22:39:15 0° 312° (NW) 3,911 6.3 -33.2°
Reaches altitude 10° 22:42:10 10° 302° (WNW) 3,057 5.5 -33.2°
Enters shadow 22:46:59 27° 263° (W) 2,167 4.2 -33.3°
